← Previous April 15, 2024 2:00 PM

ASUS43 KFGF 151910
RWRFGF
PRAIRIE TO PINES  WEATHER ROUNDUP
NATIONAL WEATHER SERVICE EASTERN NORTH DAKOTA/GRAND FORKS ND
200 PM CDT MON APR 15 2024

 **SATELLITE DATA USED TO AUGMENT SKY COVER AT AUTOMATED STATIONS**
 *****  WEATHER ACROSS EASTERN NORTH DAKOTA  *****
  
CITY           SKY/WX    TMP DP  RH WIND       PRES   REMARKS
GRAND FORKS    LGT RAIN  58  24  27 E15G24    30.00F                  
GRAND FRKS AFB NOT AVBL                                               
GRAND FRKS NWS   N/A     58  27  30 E12       29.95F                  
DEVILS LAKE    CLOUDY    51  33  50 E17       29.97F                  
FARGO          PTSUNNY   58  32  37 E14       29.99F                  
WAHPETON ARPT  FAIR      61  28  29 E20G25    29.96F                  
$$

 ***** WEATHER ACROSS CENTRAL AND WESTERN NORTH DAKOTA  *****
  
CITY           SKY/WX    TMP DP  RH WIND       PRES   REMARKS
BISMARCK       PTSUNNY   54  45  71 E24G32    29.79F                  
MINOT          FAIR      56  35  45 E26G40    29.83F                  
JAMESTOWN      FAIR      55  37  50 E24G36    29.90R                  
MINOT AFB      NOT AVBL                                               
GARRISON         N/A     55  32  41 E26G36    29.79S                  
WILLISTON      NOT AVBL                                               
DICKINSON      FAIR      68  31  25 SE31G40   29.66F                  
HETTINGER      FAIR      65  31  28 SE26G38   29.68F                  
$$

 *****  OTHER AIRPORT OBSERVATIONS IN OUR AREA  *****
  
CITY           SKY/WX    TMP DP  RH WIND       PRES   REMARKS
WALHALLA       DRIZZLE   54  34  47 E13       30.03S                  
GRAFTON AIRPOR FAIR      57  23  26 E18G24    30.03R                  
VALLEY CITY AR FAIR      52  37  58 E20G30    29.93F                  
CANDO          PTSUNNY   52  30  43 SE23G29   29.99S                  
CAVALIER APRT  FAIR      54  32  43 E13       30.03S                  
GWINNER        SUNNY     59  39  47 SE30      29.89F                  
ROLLA          CLOUDY    48  28  46 SE18G24   29.97F                  
 ***** THE ABOVE OBSERVATIONS ARE NON NWS ARE NOT QUALITY
       CONTROLLED AND MAY MIS-REPORT RAIN FOR SNOW...
$$

  *****  WEATHER ACROSS NORTHERN MINNESOTA  *****     
  
CITY           SKY/WX    TMP DP  RH WIND       PRES   REMARKS
FLAG ISLAND    FAIR      41  25  52 SE5       30.09F                  
WARROAD        FAIR      54  30  40 E8        30.09S                  
ROSEAU         FAIR      59  25  27 E10       30.06F                  
HALLOCK        CLOUDY    54  30  40 SE12      30.04F                  
THF RVR FALLS  FAIR      57  21  24 E17       30.04F                  
BAUDETTE       FAIR      61  22  22 E3        30.08S                  
WASKISH        FAIR      61  25  25 NE5       30.07F                  
CROOKSTON      FAIR      61  18  18 E18G25    30.01S                  
STEPHEN NDAWN    N/A     52  27  37 MISG        N/A                   
GREENBUSH NDAW   N/A     54  23  30 MISG        N/A                   
$$
  *****  WEATHER ACROSS CENTRAL AND WEST MINNESOTA  *****     
  
CITY           SKY/WX    TMP DP  RH WIND       PRES   REMARKS
FOSSTON        PTSUNNY   57  19  23 E7        30.03F                  
BEMIDJI        PTSUNNY   59  20  22 E7        30.04F                  
PARK RAPIDS    FAIR      59  20  22 NE10      30.02F                  
ELBOW LAKE     FAIR      61  29  29 E16       30.00F                  
WADENA         FAIR      57  25  28 E8        30.03S                  
DETROIT LAKES  PTSUNNY   59  23  25 SE17G29   29.98F                  
MOORHEAD       FAIR      55  36  47 SE9       30.01S                  
FERGUS FALLS   FAIR      63  28  27 SE18G25   29.98F                  
MORRIS MN      FAIR      66  34  30 E18G25    29.96S                  
STAPLES        FAIR      61  19  20 E6        30.03F                  
$$
  *****  WEATHER ELSEWHERE ACROSS MINNESOTA  *****     
  
CITY           SKY/WX    TMP DP  RH WIND       PRES   REMARKS
DULUTH         FAIR      57  23  26 VRB3      30.06F                  
INTRNTL FALLS  FAIR      57  25  29 N7        30.08S                  
ELY            NOT AVBL                                               
CLOQUET        FAIR      61  16  17 E5        30.05S                  
WHEATON        FAIR      64  34  32 SE17G23   29.97F                  
BRAINERD       FAIR      62  22  21 E5        30.04F                  
HIBBING        FAIR      56  12  17 VRB5      30.06F                  
ALEXANDRIA     FAIR      62  28  27 E10G22    30.03S                  
SAINT CLOUD    CLOUDY    60  28  29 SE6       30.02F                  
MINNEAPOLIS    PTSUNNY   62  29  28 E5        30.04S                  
$$

  *****  WEATHER ACROSS SOUTH DAKOTA  *****
  
CITY           SKY/WX    TMP DP  RH WIND       PRES   REMARKS
SIOUX FALLS    FAIR      78  31  17 E26G40    29.85F                  
BROOKINGS      FAIR      74  31  20 SE26G36   29.87F                  
WATERTOWN      FAIR      69  32  25 SE16G33   29.88F                  
HURON          FAIR      75  31  19 SE25G40   29.78F                  
SISSETON         N/A     64  38  38 SE20G28   29.92F                  
ABERDEEN       FAIR      74  36  25 SE24G37   29.82F                  
MITCHELL       FAIR      77  30  17 SE31G45   29.78F                  
PIERRE         FAIR      72  35  25 SE30G47   29.67F                  
MOBRIDGE       FAIR      70  32  24 SE35G46   29.71F                  
RAPID CITY     FAIR      73  46  38 SE16G29   29.59F                  
$$

  *****  SOME WEATHER IN NEARBY STATES *****
  
CITY           SKY/WX    TMP DP  RH WIND       PRES   REMARKS
GLASGOW MT     FAIR      64  33  31 E6        29.67F                  
GREAT FALLS MT CLOUDY    66  37  34 N6        29.73F                  
CHEYENNE WY    FAIR      67  12  12 N12G23    29.60F                  
SCOTTSBLUFF NE FAIR      74  40  29 MISG      29.53F                  
OMAHA NE       FAIR      81  38  21 SE25G36   29.82F                  
DES MOINES IA  FAIR      79  31  17 E18G25    29.92F                  
DAVENPORT IA   FAIR      74  38  27 E10G22    30.00F                  
CHICAGO IL     FAIR      73  36  25 NE3       30.00S                  
EAU CLAIRE WI  FAIR      67  25  20 NE8       30.04S                  
LA CROSSE WI   FAIR      70  32  24 W8        30.01F                  
$$

  *****  SOME NATIONAL WEATHER *****
  
CITY           SKY/WX    TMP DP  RH WIND       PRES   REMARKS
LA GUARDIA NY  PTSUNNY   79  38  22 W12G30    29.78F                  
RALEIGH NC     FAIR      88  53  30 SW17G25   29.93F                  
ATLANTA GA     FAIR      82  51  34 W14       30.06F                  
NEW ORLEANS LA PTSUNNY   80  67  64 S13       30.05F                  
OKLAHOMA CITY  CLOUDY    72  66  81 S22G30    29.81S                  
ALBUQUERQUE NM FAIR      65  15  14 W17G30    29.84F                  
SALT LAKE CITY CLOUDY    43  40  89 W9        29.91R FOG              
LOS ANGELES CA FAIR      61  50  67 W10       30.15S                  
BOISE ID       FAIR      60  36  40 NW20G31   29.98F                  
SEATTLE WA     CLOUDY    50  38  63 SW8       30.25S                  
$$

*** WEATHER ACROSS MANITOBA...SASKATCHEWAN AND ONTARIO ***
                ***ONTARIO***
  
CITY           SKY/WX    TMP DP  RH WIND       PRES   REMARKS
GERALDTON      NOT AVBL                                               
THUNDER BAY    MOSUNNY   59  25  27 N15G21    30.04R                  
SIOUX LOOKOUT  PTSUNNY   50  30  46 NW8       30.08R                  
TORONTO        PTSUNNY   61  34  36 NW15G28   29.92R                  
BIG TROUT LK   SUNNY     37  23  56 N13G21    30.06R                  
PICKLE LAKE    SUNNY     45   7  21 NW7       30.05R                  
DRYDEN         SUNNY     54  23  30 VRB6      30.06S                  
KENORA         PTSUNNY   55  19  24 NW9       30.07F                  
$$      
                *** MANITOBA***
  
CITY           SKY/WX    TMP DP  RH WIND       PRES   REMARKS
BRANDON        PTSUNNY   55  30  38 E20G28    29.98F                  
DAUPHIN        PTSUNNY   52  28  40 E13       30.03F                  
ISLAND LAKE    SUNNY     43  14  31 W10       30.13R                  
PILOT MOUND      N/A     59  27  29 E21G29      N/A                   
THE PAS        SUNNY     54  23  30 SE13G18   30.07S                  
THOMPSON       CLOUDY    43  34  70 W5        30.15R                  
WINNIPEG       PTSUNNY   57  25  28 E5        30.06F                  
LYNN LAKE      SUNNY     50  27  40 S9        30.07S                  
CHURCHILL      MOSUNNY   25  16  68 NW5       30.22R WCI  19          
GILLAM         MOSUNNY   39  19  45 NW6       30.17R                  
$$
                ***SASKATCHEWAN***
  
CITY           SKY/WX    TMP DP  RH WIND       PRES   REMARKS
ESTEVAN        MOSUNNY   59  32  36 SE31G44   29.79S                  
KINDERSLEY     CLOUDY    57  30  35 E14G20    29.66F                  
LLOYDMINSTER   CLOUDY    55  25  30 SE16G26   29.70F                  
PRINCE ALBERT  CLOUDY    55  18  22 SE28G37   29.86F                  
REGINA         PTSUNNY   64  30  27 SE31G43   29.76F                  
YORKTON        CLOUDY    55  28  35 E23G31    29.92F                  
N. BATTLEFORD  SUNNY     57  30  35 SE29G36   29.74F                  
LA RONGE       PTSUNNY   57  21  24 SE14G21   29.94F                  
SASKATOON      CLOUDY    61  30  31 E28G38    29.75F                  
SWIFT CURRENT  SUNNY     68  32  26 S15G24    29.64F                  
$$
NOTE: THESE ARE AUTOMATED STATIONS WITH LIMITED QUALITY CONTROL
      "FAIR" INDICATES FEW OR NO CLOUDS BELOW 12,000 FEET WITH NO
      SIGNIFICANT WEATHER AND/OR OBSTRUCTIONS TO VISIBILITY.
      SKY/WX - SKY CONDITION AND SIGNIFICANT WEATHER.
      TMP - AIR TEMPERATURE.    DP   - DEWPOINT TEMPERATURE.
      RH  - RELATIVE HUMIDITY.  PRES - PRESSURE.
      HX  - HEAT INDEX.         WCI  - WIND CHILL INDEX.
$